Tracking 28790 objects as of 19-Apr-2024
HD Live streaming from Space Station
objects crossing your sky now

FENGYUN 1C DEB

Track FENGYUN 1C DEB now!
10-day predictions


NORAD ID: 31038
Int'l Code: 1999-025BEG
Perigee: 696.2 km
Apogee: 823.9 km
Inclination: 99.1 °
Period: 99.9 minutes
Semi major axis: 7131 km
RCS: 0.0091 m2 (small)
Launch date: May 10, 1999
Source: People's Republic of China (PRC)
Launch site: Taiyaun Space Center, China (TSC)

Note: This is SATELLITE DEBRIS
Your satellite tracking list
Your tracking list is empty




NASA's NSSDC Master Catalog

Two Line Element Set (TLE):
1 31038U 99025BEG 24110.06643252  .00003798  00000-0  11250-2 0  9994
2 31038  99.0750 150.5288 0089530 215.7712 143.7458 14.41704123895748
Source of the keplerian elements: AFSPC